Home > Time Zones > World Clock > Weather > Spain > Palma > Past weeks

Flag for Spain Weather past 2 weeks in Palma, Majorca, Spain

Now
72 °F

Passing clouds.


Feels Like: 69 °F
Forecast: 68 / 80 °F
Wind: 3 mph from East

Location: Palma De Mallorca / Son San Juan

Current Time: Aug 22, 2014 at 8:46:58 AM

Latest Report: Aug 22, 2014 at 8:00 AM


Visibility: N/A

Pressure: 29.98 "Hg

Humidity: 88%

Dew point: 68 °F

Location of PalmaLocation

Historic Weather in Palma — Graph

°F

Palma temperature yesterday

Maximum temperature yesterday: 82 °F (at 3:00 PM)
Minimum temperature yesterday: 52 °F (at 10:00 AM)
Average temperature yesterday: 75 °F

Past Weeks' High & Low Weather Summary

 TemperatureHumidityPressure
High97 °F (Aug 9, 2:30 PM)94% (Aug 10, 7:30 AM)30.18 "Hg (Aug 10, 7:30 AM)
Low52 °F (Aug 21, 10:00 AM)27% (Aug 9, 3:30 PM)29.77 "Hg (Aug 13, 6:00 AM)
Average78 °F69%29.97 "Hg
* Reported Aug 7 7:00 AM — Aug 22 7:30 AM, Palma, Weather by CustomWeather, © 2014

Note: Actual official high and low records may vary slightly from our data, if they occured in-between our weather recording intervals... More about our weather records

Advertising

Palma weather history for previous 24 hours

 ConditionsComfort  
Time TempWeatherWind HumidityBarometerVisibility
7:30 AM
Aug 22
70 °FPassing clouds.5 mph94%29.98 "HgN/A
7:00 AM72 °FPassing clouds.5 mph88%29.98 "HgN/A
6:30 AM70 °FPassing clouds.2 mph88%29.95 "HgN/A
6:00 AM70 °FPassing clouds.3 mph88%29.95 "HgN/A
5:30 AM70 °FPassing clouds.3 mph88%29.95 "HgN/A
5:00 AM70 °FPassing clouds.2 mph88%29.98 "HgN/A
4:30 AM70 °FPassing clouds.2 mph88%29.98 "HgN/A
4:00 AM70 °FPassing clouds.1 mph88%29.98 "HgN/A
3:30 AM72 °FPassing clouds.3 mph88%29.98 "HgN/A
3:00 AM72 °FPassing clouds.3 mph88%29.98 "HgN/A
2:30 AM73 °FPassing clouds.2 mph83%29.98 "HgN/A
2:00 AM73 °FPassing clouds.1 mph83%30.01 "HgN/A
1:30 AM75 °FPassing clouds.1 mph78%30.01 "HgN/A
1:00 AM75 °FPassing clouds.1 mph78%30.01 "HgN/A
12:30 AM75 °FPassing clouds.1 mph78%30.01 "HgN/A
12:00 AM75 °FPassing clouds.No wind78%30.01 "HgN/A
11:30 PM
Aug 21
77 °FPassing clouds.1 mph74%30.01 "HgN/A
11:00 PM77 °FPassing clouds.No wind79%30.01 "HgN/A
10:30 PM77 °FPassing clouds.1 mph74%30.01 "HgN/A
10:00 PM79 °FPassing clouds.1 mph70%29.98 "HgN/A
9:30 PM79 °FScattered clouds.1 mph74%29.98 "HgN/A
9:00 PM81 °FScattered clouds.5 mph70%29.98 "HgN/A
8:30 PM81 °FScattered clouds.6 mph66%29.95 "HgN/A
8:00 PM81 °FScattered clouds.8 mph66%29.95 "HgN/A
7:30 PM75 °FScattered clouds.12 mph74%29.95 "HgN/A
7:00 PM75 °FScattered clouds.12 mph74%29.95 "HgN/A
6:30 PM73 °FScattered clouds.12 mph74%29.95 "HgN/A
6:00 PM79 °FScattered clouds.12 mph70%29.98 "HgN/A
5:30 PM79 °FScattered clouds.12 mph70%29.98 "HgN/A
5:00 PM81 °FScattered clouds.10 mph66%29.98 "HgN/A
4:30 PM81 °FScattered clouds.13 mph62%29.98 "HgN/A
4:00 PM81 °FScattered clouds.14 mph66%29.98 "HgN/A
3:30 PM81 °FScattered clouds.14 mph66%29.98 "HgN/A
3:00 PM82 °FScattered clouds.15 mph62%30.01 "HgN/A
2:30 PM79 °FPartly sunny.13 mph65%30.01 "HgN/A
2:00 PM79 °FPartly sunny.9 mph65%30.01 "HgN/A
1:30 PM77 °FPartly sunny.10 mph74%30.01 "HgN/A
1:00 PM79 °FPartly sunny.9 mph65%30.01 "HgN/A
12:30 PM79 °FPartly sunny.7 mph65%30.01 "HgN/A
12:00 PM81 °FPartly sunny.5 mph66%30.01 "HgN/A
11:30 AM77 °FPartly sunny.5 mph65%30.01 "HgN/A
11:00 AM75 °FPartly sunny.3 mph69%30.01 "HgN/A
10:30 AM73 °FScattered clouds.6 mph78%30.01 "HgN/A
10:00 AM52 °FPassing clouds.6 mph77%30.01 "HgN/A
9:30 AM79 °FPassing clouds.6 mph70%30.01 "HgN/A
9:00 AM77 °FPassing clouds.6 mph74%30.01 "HgN/A
8:30 AM75 °FPassing clouds.2 mph83%30.01 "HgN/A
8:00 AM73 °FPassing clouds.2 mph83%30.01 "HgN/A
Weather by CustomWeather, © 2014

See weather overviewHow to use our weather pages